Toledo Metcalf, OH

1:49 PM EDT on April 26, 2017 (GMT -0400)
Metcalf

Weather History for KTDZ - December, 2012

Change the Weather History Date:

Saturday, December 8, 2012

  Actual Average (KTOL) Record (KTOL)
Temperature  
Mean Temperature 40 °F -  
Max Temperature 44 °F 39 °F 65 °F (1966)
Min Temperature 37 °F 25 °F -7 °F (1977)
Degree Days  
Heating Degree Days 24    
Moisture  
Dew Point 39 °F    
Average Humidity 90    
Maximum Humidity 100    
Minimum Humidity 79    
Precipitation  
Precipitation 0.07 in - - ()
Sea Level Pressure  
Sea Level Pressure 29.94 in    
Wind  
Wind Speed 5 mph (NNE)    
Max Wind Speed 9 mph    
Max Gust Speed -    
Visibility 5 miles    
Events Fog , Rain    
Averages and records for this station are not official NWS values.
T = Trace of Precipitation, MM = Missing Value Source: NWS Daily Summary

Daily Weather History Graph

Daily Weather History Graph

Search for Another Location

Airport or City:

Trip Planner

Search our weather history database for the weather conditions in past years. The results will help you decide how hot, cold, wet, or windy it might be!

Date:

Astronomy

Dec. 08, 2012 Rise Set
Actual Time 7:48 AM EST 5:03 PM EST
Civil Twilight 7:17 AM EST 5:35 PM EST
Nautical Twilight 6:42 AM EST 6:09 PM EST
Astronomical Twilight 6:08 AM EST 6:43 PM EST
Moon 2:08 AM EST (12/8) 1:36 PM EST (12/8)
Length of Visible Light 10h 17m
Length of Day
9h 15m
Waning Crescent, 28% of the Moon is Illuminated
Dec 8
Waning Crescent
Dec 13
New
Dec 20
First Quarter
Dec 28
Full
Jan 4
Last Quarter

Hourly Weather History & Observations

Time (EST) Temp. Windchill Dew Point Humidity Pressure Visibility Wind Dir Wind Speed Gust Speed Precip Events Conditions
12:53 AM 43.0 °F 39.5 °F 41.0 °F 93% 29.86 in 2.0 mi ENE 5.8 mph - 0.01 in   Overcast
1:53 AM 43.0 °F 38.8 °F 41.0 °F 93% 29.83 in 2.5 mi ENE 6.9 mph - 0.01 in   Overcast
2:53 AM 43.0 °F 39.5 °F 42.1 °F 97% 29.83 in 2.0 mi NE 5.8 mph - N/A   Overcast
3:41 AM 42.8 °F 39.3 °F 41.0 °F 93% 29.83 in 1.8 mi NNE 5.8 mph - 0.01 in Rain Light Rain
3:53 AM 43.0 °F 40.3 °F 41.0 °F 93% 29.84 in 1.8 mi North 4.6 mph - 0.01 in Rain Light Rain
4:53 AM 43.0 °F 40.3 °F 41.0 °F 93% 29.83 in 1.8 mi NNE 4.6 mph - 0.02 in   Overcast
5:51 AM 42.8 °F 41.1 °F 41.0 °F 93% 29.82 in 2.0 mi NNE 3.5 mph - 0.01 in   Overcast
5:53 AM 43.0 °F 41.3 °F 41.0 °F 93% 29.82 in 2.0 mi NNE 3.5 mph - 0.01 in   Overcast
6:04 AM 42.8 °F 39.3 °F 41.0 °F 93% 29.80 in 1.8 mi NE 5.8 mph - N/A   Overcast
6:53 AM 42.1 °F 38.4 °F 41.0 °F 96% 29.83 in 1.5 mi North 5.8 mph - N/A   Overcast
7:16 AM 42.8 °F 39.3 °F 41.0 °F 93% 29.83 in 2.0 mi NNE 5.8 mph - N/A   Overcast
7:53 AM 42.1 °F 39.2 °F 41.0 °F 96% 29.85 in 2.5 mi NE 4.6 mph - N/A   Overcast
8:23 AM 42.8 °F 41.1 °F 41.0 °F 93% 29.84 in 1.8 mi NE 3.5 mph - N/A   Overcast
8:53 AM 42.1 °F - 41.0 °F 96% 29.86 in 1.0 mi Calm Calm - N/A   Overcast
9:53 AM 43.0 °F - 41.0 °F 93% 29.88 in 1.0 mi Calm Calm - N/A   Overcast
10:23 AM 42.8 °F 41.1 °F 42.8 °F 100% 29.89 in 0.8 mi NW 3.5 mph - N/A   Overcast
10:53 AM 43.0 °F 40.3 °F 42.1 °F 97% 29.91 in 0.5 mi NNW 4.6 mph - N/A Fog Fog
11:18 AM 44.6 °F 42.2 °F 42.8 °F 93% 29.89 in 1.0 mi NNW 4.6 mph - N/A   Overcast
11:21 AM 44.6 °F 42.2 °F 42.8 °F 93% 29.89 in 1.2 mi NNW 4.6 mph - N/A   Overcast
11:36 AM 44.6 °F - 42.8 °F 93% 29.89 in 2.0 mi Calm Calm - 0.01 in   Overcast
11:48 AM 44.6 °F 41.4 °F 42.8 °F 93% 29.89 in 4.0 mi NNW 5.8 mph - 0.01 in   Overcast
11:53 AM 44.1 °F 40.1 °F 42.1 °F 93% 29.90 in 4.0 mi NW 6.9 mph - 0.01 in   Overcast
12:06 PM 44.6 °F 42.2 °F 42.8 °F 93% 29.89 in 6.0 mi NNW 4.6 mph - N/A   Overcast
12:53 PM 44.1 °F 39.0 °F 41.0 °F 89% 29.91 in 8.0 mi North 9.2 mph - N/A   Overcast
1:21 PM 42.8 °F 37.5 °F 39.2 °F 87% 29.90 in 2.5 mi NNE 9.2 mph - N/A   Overcast
1:30 PM 42.8 °F 38.0 °F 39.2 °F 87% 29.91 in 3.0 mi NNE 8.1 mph - N/A   Overcast
1:53 PM 41.0 °F 35.2 °F 37.9 °F 89% 29.93 in 4.0 mi NNE 9.2 mph - N/A   Overcast
2:53 PM 39.9 °F 33.9 °F 37.0 °F 89% 29.98 in 9.0 mi North 9.2 mph - N/A   Overcast
3:53 PM 39.0 °F 34.0 °F 36.0 °F 89% 30.02 in 10.0 mi NNE 6.9 mph - N/A   Overcast
4:35 PM 39.2 °F 34.2 °F 35.6 °F 87% 30.02 in 10.0 mi North 6.9 mph - N/A   Overcast
4:53 PM 39.0 °F 34.0 °F 35.1 °F 86% 30.04 in 10.0 mi North 6.9 mph - N/A   Overcast
5:40 PM 39.2 °F 35.9 °F 33.8 °F 81% 30.05 in 10.0 mi NNE 4.6 mph - N/A   Overcast
5:53 PM 39.0 °F 36.8 °F 35.1 °F 86% 30.07 in 10.0 mi North 3.5 mph - N/A   Overcast
6:53 PM 39.0 °F 34.8 °F 34.0 °F 82% 30.09 in 10.0 mi North 5.8 mph - N/A   Overcast
7:53 PM 37.9 °F 35.5 °F 33.1 °F 83% 30.12 in 10.0 mi North 3.5 mph - N/A   Overcast
8:00 PM 37.4 °F 33.8 °F 33.8 °F 87% 30.10 in 10.0 mi NNE 4.6 mph - N/A   Overcast
8:53 PM 37.9 °F - 33.1 °F 83% 30.13 in 10.0 mi Calm Calm - N/A   Overcast
9:53 PM 37.9 °F 32.1 °F 32.0 °F 79% 30.14 in 10.0 mi ENE 8.1 mph - N/A   Overcast
10:53 PM 37.0 °F 31.0 °F 32.0 °F 82% 30.15 in 10.0 mi NE 8.1 mph - N/A   Overcast
11:53 PM 37.0 °F 32.4 °F 32.0 °F 82% 30.17 in 10.0 mi NE 5.8 mph - N/A   Overcast